Location: Newark
(37.6333°N, 5.2500°W)
Time: 07:39:44
(UTC+00:00)

N. Korean satellite - Visible Passes

Search period start: 21 March 2019 00:00
Search period end: 31 March 2019 00:00
Orbit: 456 x 510 km, 97.2° (Epoch: 20 March)

Date Brightness Start Highest point End Pass type
(mag) Time Alt. Az. Time Alt. Az. Time Alt. Az.
23 Mar 9.3 05:52:00 10° NE 05:54:59 25° E 05:57:58 10° SSE visible
24 Mar 10.2 05:28:35 10° ENE 05:30:01 12° E 05:31:28 10° ESE visible
27 Mar 9.7 05:46:16 10° NE 05:49:05 21° E 05:51:54 10° SSE visible
28 Mar 10.5 05:23:35 10° E 05:24:06 10° E 05:24:36 10° E visible
